"Sample Date","Sample Time","Sensor Name","Sample Value","Units","Flow Rate","Sample Interval","Sample Volume","Laser Status","Number Channels","Micron Size 0","Counts/Channel 0","Micron Size 1","Counts/Channel 1","Micron Size 2","Counts/Channel 2","Micron Size 3","Counts/Channel 3","Micron Size 4","Counts/Channel 4","Micron Size 5","Counts/Channel 5","Micron Size 6","Counts/Channel 6","Micron Size 7","Counts/Channel 7","Micron Size 8","Counts/Channel 8","Micron Size 9","Counts/Channel 9","Micron Size 10","Counts/Channel 10","Micron Size 11","Counts/Channel 11","Micron Size 12","Counts/Channel 12","Micron Size 13","Counts/Channel 13","Micron Size 14","Counts/Channel 14","Micron Size 15","Counts/Channel 15","Micron Size 16","Counts/Channel 16","Micron Size 17","Counts/Channel 17","Micron Size 18","Counts/Channel 18","Micron Size 19","Counts/Channel 19","Micron Size 20","Counts/Channel 20","Micron Size 21","Counts/Channel 21","Micron Size 22","Counts/Channel 22","Micron Size 23","Counts/Channel 23","Micron Size 24","Counts/Channel 24","Micron Size 25","Counts/Channel 25","Micron Size 26","Counts/Channel 26","Micron Size 27","Counts/Channel 27","Micron Size 28","Counts/Channel 28","Micron Size 29","Counts/Channel 29","Micron Size 30","Counts/Channel 30","Micron Size 31","Counts/Channel 31"
"07/04/06","04:00:02","AMMA06",65692.000,"cc",28364.203,6.00,2836.420,1,6,0.100,30070.000,0.200,28594.000,0.300,4754.000,0.500,1347.000,1.000,926.000,5.000,1.000
"07/04/06","04:00:08","AMMA06",65649.000,"cc",28317.723,6.00,2831.773,1,6,0.100,30225.000,0.200,28480.000,0.300,4718.000,0.500,1382.000,1.000,844.000,5.000,0
"07/04/06","04:00:14","AMMA06",65527.000,"cc",28312.928,6.00,2831.293,1,6,0.100,29982.000,0.200,28408.000,0.300,4859.000,0.500,1379.000,1.000,899.000,5.000,0
"07/04/06","04:00:20","AMMA06",65651.000,"cc",28430.523,6.00,2843.053,1,6,0.100,30164.000,0.200,28571.000,0.300,4701.000,0.500,1337.000,1.000,878.000,5.000,0
"07/04/06","04:00:26","AMMA06",65070.000,"cc",28257.117,6.00,2825.712,1,6,0.100,29662.000,0.200,28249.000,0.300,4815.000,0.500,1361.000,1.000,982.000,5.000,1.000
"07/04/06","04:00:32","AMMA06",65193.000,"cc",28292.504,6.00,2829.251,1,6,0.100,29714.000,0.200,28483.000,0.300,4757.000,0.500,1347.000,1.000,892.000,5.000,0
"07/04/06","04:00:38","AMMA06",65210.000,"cc",28330.342,6.00,2833.034,1,6,0.100,29818.000,0.200,28363.000,0.300,4766.000,0.500,1339.000,1.000,922.000,5.000,2.000
"07/04/06","04:00:44","AMMA06",65881.000,"cc",28320.330,6.00,2832.033,1,6,0.100,29953.000,0.200,28716.000,0.300,4941.000,0.500,1310.000,1.000,961.000,5.000,0
"07/04/06","04:00:50","AMMA06",65290.000,"cc",28328.852,6.00,2832.885,1,6,0.100,29878.000,0.200,28274.000,0.300,4801.000,0.500,1399.000,1.000,938.000,5.000,0
"07/04/06","04:00:56","AMMA06",65622.000,"cc",28291.777,6.00,2829.178,1,6,0.100,29931.000,0.200,28445.000,0.300,4983.000,0.500,1372.000,1.000,889.000,5.000,2.000
"07/04/06","04:01:02","AMMA06",65616.000,"cc",28282.813,6.00,2828.282,1,6,0.100,29857.000,0.200,28692.000,0.300,4816.000,0.500,1341.000,1.000,907.000,5.000,3.000
"07/04/06","04:01:08","AMMA06",65550.000,"cc",28292.568,6.00,2829.257,1,6,0.100,30100.000,0.200,28330.000,0.300,4844.000,0.500,1369.000,1.000,907.000,5.000,0
"07/04/06","04:01:14","AMMA06",65376.000,"cc",28365.867,6.00,2836.587,1,6,0.100,29781.000,0.200,28478.000,0.300,4877.000,0.500,1332.000,1.000,908.000,5.000,0
"07/04/06","04:01:20","AMMA06",65749.000,"cc",28281.551,6.00,2828.155,1,6,0.100,29792.000,0.200,28617.000,0.300,5044.000,0.500,1313.000,1.000,981.000,5.000,2.000
"07/04/06","04:01:26","AMMA06",65450.000,"cc",28303.520,6.00,2830.352,1,6,0.100,29601.000,0.200,28687.000,0.300,4821.000,0.500,1410.000,1.000,930.000,5.000,1.000
"07/04/06","04:01:32","AMMA06",65543.000,"cc",28334.770,6.00,2833.477,1,6,0.100,29977.000,0.200,28396.000,0.300,4878.000,0.500,1351.000,1.000,939.000,5.000,2.000
"07/04/06","04:01:38","AMMA06",65677.000,"cc",28332.260,6.00,2833.226,1,6,0.100,29905.000,0.200,28757.000,0.300,4831.000,0.500,1316.000,1.000,866.000,5.000,2.000
"07/04/06","04:01:44","AMMA06",65000.000,"cc",28330.557,6.00,2833.056,1,6,0.100,29498.000,0.200,28384.000,0.300,4819.000,0.500,1375.000,1.000,924.000,5.000,0
"07/04/06","04:01:50","AMMA06",65028.000,"cc",28339.793,6.00,2833.980,1,6,0.100,29805.000,0.200,28214.000,0.300,4787.000,0.500,1324.000,1.000,897.000,5.000,1.000
"07/04/06","04:01:56","AMMA06",65786.000,"cc",28313.516,6.00,2831.352,1,6,0.100,29980.000,0.200,28669.000,0.300,4780.000,0.500,1457.000,1.000,900.000,5.000,0
"07/04/06","04:02:02","AMMA06",65544.000,"cc",28286.316,6.00,2828.632,1,6,0.100,30073.000,0.200,28340.000,0.300,4833.000,0.500,1358.000,1.000,940.000,5.000,0
"07/04/06","04:02:08","AMMA06",65829.000,"cc",28333.100,6.00,2833.310,1,6,0.100,29981.000,0.200,28738.000,0.300,4856.000,0.500,1297.000,1.000,957.000,5.000,0
"07/04/06","04:02:14","AMMA06",65547.000,"cc",28343.461,6.00,2834.346,1,6,0.100,30067.000,0.200,28256.000,0.300,4880.000,0.500,1340.000,1.000,1004.000,5.000,0
"07/04/06","04:02:20","AMMA06",65681.000,"cc",28272.988,6.00,2827.299,1,6,0.100,30004.000,0.200,28586.000,0.300,4848.000,0.500,1349.000,1.000,894.000,5.000,0
"07/04/06","04:02:26","AMMA06",65206.000,"cc",28338.844,6.00,2833.885,1,6,0.100,30080.000,0.200,28221.000,0.300,4769.000,0.500,1310.000,1.000,823.000,5.000,3.000
"07/04/06","04:02:32","AMMA06",65811.000,"cc",28361.660,6.00,2836.166,1,6,0.100,30365.000,0.200,28429.000,0.300,4764.000,0.500,1354.000,1.000,899.000,5.000,0
"07/04/06","04:02:38","AMMA06",65033.000,"cc",28321.270,6.00,2832.127,1,6,0.100,29874.000,0.200,28107.000,0.300,4797.000,0.500,1343.000,1.000,910.000,5.000,2.000
"07/04/06","04:02:44","AMMA06",65196.000,"cc",28289.742,6.00,2828.974,1,6,0.100,29970.000,0.200,28279.000,0.300,4692.000,0.500,1320.000,1.000,935.000,5.000,0
"07/04/06","04:02:50","AMMA06",65340.000,"cc",28299.106,6.00,2829.911,1,6,0.100,30020.000,0.200,28285.000,0.300,4714.000,0.500,1384.000,1.000,936.000,5.000,1.000
"07/04/06","04:02:56","AMMA06",64455.000,"cc",28268.402,6.00,2826.840,1,6,0.100,29573.000,0.200,27726.000,0.300,4795.000,0.500,1393.000,1.000,968.000,5.000,0
"07/04/06","04:03:02","AMMA06",64311.000,"cc",28313.402,6.00,2831.340,1,6,0.100,29742.000,0.200,27561.000,0.300,4774.000,0.500,1334.000,1.000,898.000,5.000,2.000
"07/04/06","04:03:08","AMMA06",63889.000,"cc",28277.410,6.00,2827.741,1,6,0.100,29449.000,0.200,27379.000,0.300,4754.000,0.500,1369.000,1.000,937.000,5.000,1.000
"07/04/06","04:03:14","AMMA06",64686.000,"cc",28299.461,6.00,2829.946,1,6,0.100,29745.000,0.200,27954.000,0.300,4680.000,0.500,1395.000,1.000,912.000,5.000,0
"07/04/06","04:03:20","AMMA06",64890.000,"cc",28306.734,6.00,2830.674,1,6,0.100,29885.000,0.200,27949.000,0.300,4760.000,0.500,1397.000,1.000,899.000,5.000,0
"07/04/06","04:03:26","AMMA06",64116.000,"cc",28383.172,6.00,2838.317,1,6,0.100,29600.000,0.200,27674.000,0.300,4516.000,0.500,1405.000,1.000,920.000,5.000,1.000
"07/04/06","04:03:32","AMMA06",64677.000,"cc",28344.244,6.00,2834.425,1,6,0.100,30093.000,0.200,27569.000,0.300,4748.000,0.500,1337.000,1.000,928.000,5.000,2.000
"07/04/06","04:03:38","AMMA06",64626.000,"cc",28292.691,6.00,2829.269,1,6,0.100,30073.000,0.200,27768.000,0.300,4498.000,0.500,1371.000,1.000,916.000,5.000,0
"07/04/06","04:03:44","AMMA06",64491.000,"cc",28343.104,6.00,2834.311,1,6,0.100,30148.000,0.200,27383.000,0.300,4654.000,0.500,1389.000,1.000,913.000,5.000,4.000
"07/04/06","04:03:50","AMMA06",64005.000,"cc",28379.410,6.00,2837.941,1,6,0.100,29914.000,0.200,27233.000,0.300,4528.000,0.500,1430.000,1.000,899.000,5.000,1.000
"07/04/06","04:03:56","AMMA06",64241.000,"cc",28317.272,6.00,2831.727,1,6,0.100,30093.000,0.200,27292.000,0.300,4610.000,0.500,1347.000,1.000,899.000,5.000,0
"07/04/06","04:04:02","AMMA06",64093.000,"cc",28354.557,6.00,2835.456,1,6,0.100,30195.000,0.200,27208.000,0.300,4458.000,0.500,1356.000,1.000,875.000,5.000,1.000
"07/04/06","04:04:08","AMMA06",64260.000,"cc",28271.445,6.00,2827.145,1,6,0.100,30177.000,0.200,27308.000,0.300,4539.000,0.500,1344.000,1.000,892.000,5.000,0
"07/04/06","04:04:14","AMMA06",64249.000,"cc",28262.586,6.00,2826.259,1,6,0.100,29847.000,0.200,27556.000,0.300,4644.000,0.500,1327.000,1.000,875.000,5.000,0
"07/04/06","04:04:20","AMMA06",64515.000,"cc",28393.402,6.00,2839.340,1,6,0.100,30165.000,0.200,27573.000,0.300,4548.000,0.500,1314.000,1.000,913.000,5.000,2.000
"07/04/06","04:04:26","AMMA06",64260.000,"cc",28277.090,6.00,2827.709,1,6,0.100,30276.000,0.200,27252.000,0.300,4424.000,0.500,1372.000,1.000,934.000,5.000,2.000
"07/04/06","04:04:32","AMMA06",64480.000,"cc",28260.955,6.00,2826.096,1,6,0.100,30358.000,0.200,27278.000,0.300,4497.000,0.500,1391.000,1.000,954.000,5.000,2.000
"07/04/06","04:04:38","AMMA06",64078.000,"cc",28345.895,6.00,2834.590,1,6,0.100,29702.000,0.200,27680.000,0.300,4499.000,0.500,1332.000,1.000,862.000,5.000,3.000
"07/04/06","04:04:44","AMMA06",64171.000,"cc",28333.711,6.00,2833.371,1,6,0.100,29846.000,0.200,27650.000,0.300,4402.000,0.500,1374.000,1.000,898.000,5.000,1.000
"07/04/06","04:04:50","AMMA06",63935.000,"cc",28373.102,6.00,2837.310,1,6,0.100,29942.000,0.200,27280.000,0.300,4586.000,0.500,1301.000,1.000,824.000,5.000,2.000
"07/04/06","04:04:56","AMMA06",64207.000,"cc",28265.455,6.00,2826.546,1,6,0.100,30270.000,0.200,27282.000,0.300,4407.000,0.500,1336.000,1.000,911.000,5.000,1.000
"07/04/06","04:05:02","AMMA06",64253.000,"cc",28292.400,6.00,2829.240,1,6,0.100,30053.000,0.200,27418.000,0.300,4497.000,0.500,1395.000,1.000,889.000,5.000,1.000
"07/04/06","04:05:08","AMMA06",64027.000,"cc",28312.090,6.00,2831.209,1,6,0.100,29699.000,0.200,27599.000,0.300,4445.000,0.500,1373.000,1.000,909.000,5.000,2.000
"07/04/06","04:05:14","AMMA06",64287.000,"cc",28337.908,6.00,2833.791,1,6,0.100,29957.000,0.200,27411.000,0.300,4602.000,0.500,1395.000,1.000,922.000,5.000,0
"07/04/06","04:05:20","AMMA06",64211.000,"cc",28308.981,6.00,2830.898,1,6,0.100,30011.000,0.200,27324.000,0.300,4560.000,0.500,1427.000,1.000,885.000,5.000,4.000
"07/04/06","04:05:26","AMMA06",64303.000,"cc",28359.898,6.00,2835.990,1,6,0.100,29844.000,0.200,27571.000,0.300,4613.000,0.500,1362.000,1.000,912.000,5.000,1.000
"07/04/06","04:05:32","AMMA06",64040.000,"cc",28279.223,6.00,2827.922,1,6,0.100,29920.000,0.200,27425.000,0.300,4554.000,0.500,1284.000,1.000,857.000,5.000,0
"07/04/06","04:05:38","AMMA06",64192.000,"cc",28292.604,6.00,2829.261,1,6,0.100,29613.000,0.200,27620.000,0.300,4652.000,0.500,1438.000,1.000,868.000,5.000,1.000
"07/04/06","04:05:44","AMMA06",64437.000,"cc",28336.426,6.00,2833.643,1,6,0.100,29630.000,0.200,27738.000,0.300,4694.000,0.500,1418.000,1.000,954.000,5.000,3.000
"07/04/06","04:05:50","AMMA06",64422.000,"cc",28319.922,6.00,2831.992,1,6,0.100,29888.000,0.200,27761.000,0.300,4552.000,0.500,1348.000,1.000,870.000,5.000,3.000
"07/04/06","04:05:56","AMMA06",64651.000,"cc",28291.992,6.00,2829.200,1,6,0.100,29771.000,0.200,28056.000,0.300,4546.000,0.500,1394.000,1.000,884.000,5.000,0
"07/04/06","04:06:02","AMMA06",64161.000,"cc",28323.043,6.00,2832.304,1,6,0.100,29681.000,0.200,27539.000,0.300,4777.000,0.500,1323.000,1.000,841.000,5.000,0
"07/04/06","04:06:08","AMMA06",64021.000,"cc",28325.232,6.00,2832.523,1,6,0.100,29746.000,0.200,27393.000,0.300,4675.000,0.500,1327.000,1.000,879.000,5.000,1.000
"07/04/06","04:06:14","AMMA06",64441.000,"cc",28338.104,6.00,2833.811,1,6,0.100,29730.000,0.200,27940.000,0.300,4578.000,0.500,1354.000,1.000,838.000,5.000,1.000
"07/04/06","04:06:20","AMMA06",64158.000,"cc",28329.988,6.00,2832.999,1,6,0.100,29438.000,0.200,27888.000,0.300,4618.000,0.500,1286.000,1.000,927.000,5.000,1.000
"07/04/06","04:06:26","AMMA06",63921.000,"cc",28340.807,6.00,2834.081,1,6,0.100,29646.000,0.200,27391.000,0.300,4678.000,0.500,1311.000,1.000,894.000,5.000,1.000
"07/04/06","04:06:32","AMMA06",64312.000,"cc",28327.275,6.00,2832.728,1,6,0.100,29695.000,0.200,27574.000,0.300,4774.000,0.500,1361.000,1.000,907.000,5.000,1.000
"07/04/06","04:06:38","AMMA06",64248.000,"cc",28297.227,6.00,2829.723,1,6,0.100,29626.000,0.200,27548.000,0.300,4793.000,0.500,1353.000,1.000,928.000,5.000,0
"07/04/06","04:06:44","AMMA06",64617.000,"cc",28354.082,6.00,2835.408,1,6,0.100,29653.000,0.200,28036.000,0.300,4752.000,0.500,1322.000,1.000,854.000,5.000,0
"07/04/06","04:06:50","AMMA06",64143.000,"cc",28242.666,6.00,2824.267,1,6,0.100,29548.000,0.200,27799.000,0.300,4529.000,0.500,1368.000,1.000,898.000,5.000,1.000
"07/04/06","04:06:56","AMMA06",64491.000,"cc",28264.549,6.00,2826.455,1,6,0.100,29456.000,0.200,28098.000,0.300,4695.000,0.500,1315.000,1.000,925.000,5.000,2.000
"07/04/06","04:07:02","AMMA06",64374.000,"cc",28345.709,6.00,2834.571,1,6,0.100,29273.000,0.200,28090.000,0.300,4733.000,0.500,1341.000,1.000,937.000,5.000,0
"07/04/06","04:07:08","AMMA06",64580.000,"cc",28338.082,6.00,2833.808,1,6,0.100,29506.000,0.200,28027.000,0.300,4785.000,0.500,1357.000,1.000,903.000,5.000,2.000
"07/04/06","04:07:14","AMMA06",64770.000,"cc",28311.889,6.00,2831.189,1,6,0.100,29444.000,0.200,28182.000,0.300,4854.000,0.500,1374.000,1.000,913.000,5.000,3.000
"07/04/06","04:07:20","AMMA06",64390.000,"cc",28346.328,6.00,2834.633,1,6,0.100,29417.000,0.200,27930.000,0.300,4766.000,0.500,1403.000,1.000,874.000,5.000,0
"07/04/06","04:07:26","AMMA06",64334.000,"cc",28345.522,6.00,2834.552,1,6,0.100,29349.000,0.200,28129.000,0.300,4650.000,0.500,1325.000,1.000,880.000,5.000,1.000
"07/04/06","04:07:32","AMMA06",64466.000,"cc",28342.172,6.00,2834.217,1,6,0.100,29000.000,0.200,28388.000,0.300,4911.000,0.500,1324.000,1.000,841.000,5.000,2.000
"07/04/06","04:07:38","AMMA06",64302.000,"cc",28304.096,6.00,2830.410,1,6,0.100,29301.000,0.200,27918.000,0.300,4827.000,0.500,1302.000,1.000,952.000,5.000,2.000
"07/04/06","04:07:44","AMMA06",64692.000,"cc",28323.678,6.00,2832.368,1,6,0.100,29441.000,0.200,28119.000,0.300,4857.000,0.500,1354.000,1.000,921.000,5.000,0
"07/04/06","04:07:50","AMMA06",64447.000,"cc",28278.699,6.00,2827.870,1,6,0.100,29091.000,0.200,28175.000,0.300,4872.000,0.500,1365.000,1.000,944.000,5.000,0
"07/04/06","04:07:56","AMMA06",64222.000,"cc",28357.801,6.00,2835.780,1,6,0.100,29066.000,0.200,28021.000,0.300,4792.000,0.500,1394.000,1.000,949.000,5.000,0
"07/04/06","04:08:02","AMMA06",63884.000,"cc",28265.775,6.00,2826.578,1,6,0.100,29147.000,0.200,27816.000,0.300,4656.000,0.500,1364.000,1.000,901.000,5.000,0
"07/04/06","04:08:08","AMMA06",64565.000,"cc",28337.022,6.00,2833.702,1,6,0.100,29195.000,0.200,28198.000,0.300,4859.000,0.500,1383.000,1.000,928.000,5.000,2.000
"07/04/06","04:08:14","AMMA06",64212.000,"cc",28289.988,6.00,2828.999,1,6,0.100,29240.000,0.200,27874.000,0.300,4844.000,0.500,1342.000,1.000,911.000,5.000,1.000
"07/04/06","04:08:20","AMMA06",64510.000,"cc",28359.322,6.00,2835.932,1,6,0.100,28912.000,0.200,28435.000,0.300,4919.000,0.500,1339.000,1.000,905.000,5.000,0
"07/04/06","04:08:26","AMMA06",64975.000,"cc",28347.557,6.00,2834.756,1,6,0.100,29538.000,0.200,28323.000,0.300,4816.000,0.500,1327.000,1.000,970.000,5.000,1.000
"07/04/06","04:08:32","AMMA06",64637.000,"cc",28237.840,6.00,2823.784,1,6,0.100,29332.000,0.200,28233.000,0.300,4765.000,0.500,1390.000,1.000,917.000,5.000,0
"07/04/06","04:08:38","AMMA06",64597.000,"cc",28320.055,6.00,2832.006,1,6,0.100,29588.000,0.200,27934.000,0.300,4803.000,0.500,1360.000,1.000,911.000,5.000,1.000
"07/04/06","04:08:44","AMMA06",64768.000,"cc",28329.793,6.00,2832.980,1,6,0.100,29649.000,0.200,28014.000,0.300,4815.000,0.500,1341.000,1.000,949.000,5.000,0
"07/04/06","04:08:50","AMMA06",64223.000,"cc",28290.984,6.00,2829.099,1,6,0.100,29034.000,0.200,28124.000,0.300,4767.000,0.500,1344.000,1.000,954.000,5.000,0
"07/04/06","04:08:56","AMMA06",64363.000,"cc",28318.670,6.00,2831.867,1,6,0.100,29501.000,0.200,27979.000,0.300,4737.000,0.500,1268.000,1.000,876.000,5.000,2.000
"07/04/06","04:09:02","AMMA06",64926.000,"cc",28305.410,6.00,2830.541,1,6,0.100,29528.000,0.200,28341.000,0.300,4741.000,0.500,1358.000,1.000,958.000,5.000,0
"07/04/06","04:09:08","AMMA06",64665.000,"cc",28259.522,6.00,2825.952,1,6,0.100,29538.000,0.200,28009.000,0.300,4813.000,0.500,1399.000,1.000,906.000,5.000,0
"07/04/06","04:09:14","AMMA06",64444.000,"cc",28336.953,6.00,2833.696,1,6,0.100,29440.000,0.200,28022.000,0.300,4743.000,0.500,1308.000,1.000,930.000,5.000,1.000
"07/04/06","04:09:20","AMMA06",64259.000,"cc",28334.779,6.00,2833.478,1,6,0.100,29257.000,0.200,27831.000,0.300,4852.000,0.500,1427.000,1.000,891.000,5.000,1.000
"07/04/06","04:09:26","AMMA06",64383.000,"cc",28328.897,6.00,2832.890,1,6,0.100,29208.000,0.200,28236.000,0.300,4726.000,0.500,1294.000,1.000,919.000,5.000,0
"07/04/06","04:09:32","AMMA06",64282.000,"cc",28344.088,6.00,2834.409,1,6,0.100,29196.000,0.200,28018.000,0.300,4757.000,0.500,1383.000,1.000,928.000,5.000,0
"07/04/06","04:09:38","AMMA06",64391.000,"cc",28297.022,6.00,2829.702,1,6,0.100,29255.000,0.200,28065.000,0.300,4818.000,0.500,1321.000,1.000,931.000,5.000,1.000
"07/04/06","04:09:44","AMMA06",64560.000,"cc",28343.641,6.00,2834.364,1,6,0.100,29547.000,0.200,27958.000,0.300,4899.000,0.500,1332.000,1.000,824.000,5.000,0
"07/04/06","04:09:50","AMMA06",64556.000,"cc",28299.584,6.00,2829.959,1,6,0.100,29537.000,0.200,28153.000,0.300,4663.000,0.500,1313.000,1.000,889.000,5.000,1.000
"07/04/06","04:09:56","AMMA06",64590.000,"cc",28365.371,6.00,2836.537,1,6,0.100,29266.000,0.200,28236.000,0.300,4831.000,0.500,1304.000,1.000,952.000,5.000,1.000
"07/04/06","04:10:02","AMMA06",64685.000,"cc",28320.650,6.00,2832.065,1,6,0.100,29459.000,0.200,28103.000,0.300,4865.000,0.500,1353.000,1.000,905.000,5.000,0
"07/04/06","04:10:08","AMMA06",64303.000,"cc",28251.188,6.00,2825.119,1,6,0.100,29176.000,0.200,28125.000,0.300,4719.000,0.500,1370.000,1.000,912.000,5.000,1.000
"07/04/06","04:10:14","AMMA06",64543.000,"cc",28319.412,6.00,2831.941,1,6,0.100,29672.000,0.200,27855.000,0.300,4787.000,0.500,1340.000,1.000,888.000,5.000,1.000
"07/04/06","04:10:20","AMMA06",64237.000,"cc",28322.514,6.00,2832.252,1,6,0.100,29316.000,0.200,27901.000,0.300,4751.000,0.500,1350.000,1.000,919.000,5.000,0
"07/04/06","04:10:26","AMMA06",64391.000,"cc",28350.221,6.00,2835.022,1,6,0.100,29612.000,0.200,27778.000,0.300,4725.000,0.500,1384.000,1.000,892.000,5.000,0
"07/04/06","04:10:32","AMMA06",64190.000,"cc",28302.643,6.00,2830.264,1,6,0.100,29314.000,0.200,27902.000,0.300,4674.000,0.500,1381.000,1.000,918.000,5.000,1.000
"07/04/06","04:10:38","AMMA06",64521.000,"cc",28282.035,6.00,2828.204,1,6,0.100,29698.000,0.200,27867.000,0.300,4681.000,0.500,1446.000,1.000,829.000,5.000,0
"07/04/06","04:10:44","AMMA06",64413.000,"cc",28345.398,6.00,2834.540,1,6,0.100,29804.000,0.200,27699.000,0.300,4636.000,0.500,1394.000,1.000,879.000,5.000,1.000
"07/04/06","04:10:50","AMMA06",64958.000,"cc",28343.816,6.00,2834.382,1,6,0.100,29867.000,0.200,28179.000,0.300,4674.000,0.500,1332.000,1.000,906.000,5.000,0
"07/04/06","04:10:56","AMMA06",64723.000,"cc",28346.434,6.00,2834.644,1,6,0.100,29867.000,0.200,27942.000,0.300,4633.000,0.500,1425.000,1.000,856.000,5.000,0
"07/04/06","04:11:02","AMMA06",64479.000,"cc",28359.131,6.00,2835.913,1,6,0.100,29635.000,0.200,27845.000,0.300,4726.000,0.500,1368.000,1.000,904.000,5.000,1.000
"07/04/06","04:11:08","AMMA06",64537.000,"cc",28269.481,6.00,2826.948,1,6,0.100,29678.000,0.200,27938.000,0.300,4732.000,0.500,1261.000,1.000,928.000,5.000,0
"07/04/06","04:11:14","AMMA06",65113.000,"cc",28233.481,6.00,2823.348,1,6,0.100,29977.000,0.200,28220.000,0.300,4581.000,0.500,1402.000,1.000,932.000,5.000,1.000
"07/04/06","04:11:20","AMMA06",65116.000,"cc",28314.588,6.00,2831.459,1,6,0.100,30160.000,0.200,28022.000,0.300,4713.000,0.500,1320.000,1.000,899.000,5.000,2.000
"07/04/06","04:11:26","AMMA06",64249.000,"cc",28316.686,6.00,2831.669,1,6,0.100,29531.000,0.200,27752.000,0.300,4680.000,0.500,1386.000,1.000,900.000,5.000,0
"07/04/06","04:11:32","AMMA06",64809.000,"cc",28344.666,6.00,2834.467,1,6,0.100,30056.000,0.200,27918.000,0.300,4512.000,0.500,1387.000,1.000,935.000,5.000,1.000
"07/04/06","04:11:38","AMMA06",64310.000,"cc",28288.633,6.00,2828.864,1,6,0.100,29557.000,0.200,27880.000,0.300,4576.000,0.500,1380.000,1.000,916.000,5.000,1.000
"07/04/06","04:11:44","AMMA06",64921.000,"cc",28312.699,6.00,2831.270,1,6,0.100,29958.000,0.200,27988.000,0.300,4636.000,0.500,1388.000,1.000,951.000,5.000,0
"07/04/06","04:11:50","AMMA06",64526.000,"cc",28335.418,6.00,2833.542,1,6,0.100,29738.000,0.200,27790.000,0.300,4663.000,0.500,1458.000,1.000,876.000,5.000,1.000
"07/04/06","04:11:56","AMMA06",64619.000,"cc",28301.766,6.00,2830.177,1,6,0.100,29575.000,0.200,28063.000,0.300,4633.000,0.500,1416.000,1.000,930.000,5.000,2.000
"07/04/06","04:12:02","AMMA06",65148.000,"cc",28341.660,6.00,2834.166,1,6,0.100,29964.000,0.200,28207.000,0.300,4619.000,0.500,1471.000,1.000,887.000,5.000,0
"07/04/06","04:12:08","AMMA06",64458.000,"cc",28311.850,6.00,2831.185,1,6,0.100,29704.000,0.200,27929.000,0.300,4581.000,0.500,1367.000,1.000,876.000,5.000,1.000
"07/04/06","04:12:14","AMMA06",64882.000,"cc",28258.955,6.00,2825.896,1,6,0.100,30125.000,0.200,27745.000,0.300,4717.000,0.500,1413.000,1.000,880.000,5.000,2.000
"07/04/06","04:12:20","AMMA06",65549.000,"cc",28360.289,6.00,2836.029,1,6,0.100,30245.000,0.200,28354.000,0.300,4667.000,0.500,1353.000,1.000,930.000,5.000,0
"07/04/06","04:12:26","AMMA06",64639.000,"cc",28320.691,6.00,2832.069,1,6,0.100,29618.000,0.200,28087.000,0.300,4598.000,0.500,1416.000,1.000,919.000,5.000,1.000
"07/04/06","04:12:32","AMMA06",64779.000,"cc",28316.660,6.00,2831.666,1,6,0.100,29711.000,0.200,27907.000,0.300,4802.000,0.500,1401.000,1.000,957.000,5.000,1.000
"07/04/06","04:12:38","AMMA06",64936.000,"cc",28323.873,6.00,2832.388,1,6,0.100,29700.000,0.200,28085.000,0.300,4783.000,0.500,1382.000,1.000,985.000,5.000,1.000
"07/04/06","04:12:44","AMMA06",64545.000,"cc",28326.660,6.00,2832.666,1,6,0.100,29647.000,0.200,27972.000,0.300,4658.000,0.500,1363.000,1.000,903.000,5.000,2.000
"07/04/06","04:12:50","AMMA06",64754.000,"cc",28337.389,6.00,2833.739,1,6,0.100,29849.000,0.200,27833.000,0.300,4740.000,0.500,1368.000,1.000,962.000,5.000,2.000
"07/04/06","04:12:56","AMMA06",64813.000,"cc",28287.545,6.00,2828.755,1,6,0.100,29615.000,0.200,28022.000,0.300,4773.000,0.500,1437.000,1.000,965.000,5.000,1.000
"07/04/06","04:13:02","AMMA06",64565.000,"cc",28287.152,6.00,2828.715,1,6,0.100,29617.000,0.200,27971.000,0.300,4701.000,0.500,1407.000,1.000,869.000,5.000,0
"07/04/06","04:13:08","AMMA06",65279.000,"cc",28339.713,6.00,2833.971,1,6,0.100,29903.000,0.200,28358.000,0.300,4722.000,0.500,1387.000,1.000,909.000,5.000,0
"07/04/06","04:13:14","AMMA06",64846.000,"cc",28327.635,6.00,2832.764,1,6,0.100,29617.000,0.200,28081.000,0.300,4831.000,0.500,1419.000,1.000,897.000,5.000,1.000
"07/04/06","04:13:20","AMMA06",64983.000,"cc",28303.451,6.00,2830.345,1,6,0.100,29698.000,0.200,28154.000,0.300,4870.000,0.500,1371.000,1.000,889.000,5.000,1.000
"07/04/06","04:13:26","AMMA06",65442.000,"cc",28339.529,6.00,2833.953,1,6,0.100,29940.000,0.200,28267.000,0.300,4945.000,0.500,1413.000,1.000,876.000,5.000,1.000
"07/04/06","04:13:32","AMMA06",65082.000,"cc",28309.986,6.00,2830.999,1,6,0.100,29605.000,0.200,28317.000,0.300,4825.000,0.500,1373.000,1.000,962.000,5.000,0
"07/04/06","04:13:38","AMMA06",65382.000,"cc",28330.963,6.00,2833.096,1,6,0.100,29794.000,0.200,28268.000,0.300,4907.000,0.500,1448.000,1.000,963.000,5.000,2.000
"07/04/06","04:13:44","AMMA06",65354.000,"cc",28289.760,6.00,2828.976,1,6,0.100,29777.000,0.200,28533.000,0.300,4816.000,0.500,1351.000,1.000,875.000,5.000,2.000
"07/04/06","04:13:50","AMMA06",65024.000,"cc",28347.342,6.00,2834.734,1,6,0.100,29488.000,0.200,28310.000,0.300,4890.000,0.500,1363.000,1.000,973.000,5.000,0
"07/04/06","04:13:56","AMMA06",65421.000,"cc",28299.354,6.00,2829.936,1,6,0.100,29761.000,0.200,28305.000,0.300,4930.000,0.500,1463.000,1.000,961.000,5.000,1.000